Tracking 28790 objects as of 18-Apr-2024
HD Live streaming from Space Station
objects crossing your sky now

COSMOS 864

Track COSMOS 864 now!
10-day predictions
COSMOS 864 is classified as:


NORAD ID: 9509
Int'l Code: 1976-108A
Perigee: 965.4 km
Apogee: 1,009.0 km
Inclination: 82.9 °
Period: 104.7 minutes
Semi major axis: 7358 km
RCS: 2.1559 m2 (large)
Launch date: October 29, 1976
Source: Commonwealth of Independent States (former USSR) (CIS)
Launch site: PLESETSK MISSILE AND SPACE COMPLEX (PKMTR)
Your satellite tracking list
Your tracking list is empty




NASA's NSSDC Master Catalog

Two Line Element Set (TLE):
1 09509U 76108A   24108.88148771  .00000106  00000-0  94162-4 0  9997
2 09509  82.9450  15.7182 0029627 188.6331 243.7861 13.75464113381797
Source of the keplerian elements: AFSPC